EW5474 Weather Reports


Display with metric or nautical units.
time (UTC)temp
F
wind
direction
speed
MPH
gust
MPH
rain 1hr
in
rain 24hr
in
rain mn
in
humidity
%
barometer
mb
20260508151441 64 41 3.0 8.0 0.00 0.00 0.00 55 1017.3
20260508150935 64 26 3.0 8.0 0.00 0.00 0.00 55 1017.3
20260508150700 64 338 3.0 8.0 0.00 0.00 0.00 58 1017.2
20260508145926 63 338 2.0 7.0 0.00 0.00 0.00 54 1017.2
20260508145427 63 169 2.0 8.0 0.00 0.00 0.00 57 1017.1
20260508144926 63 32 2.0 8.0 0.00 0.00 0.00 58 1017.1
20260508144426 63 209 3.0 8.0 0.00 0.00 0.00 60 1017.0
20260508143924 62 9 3.0 12.0 0.00 0.00 0.00 58 1017.0
20260508143425 63 15 3.0 12.0 0.00 0.00 0.00 57 1017.0
20260508143156 62 338 3.0 9.0 0.00 0.00 0.00 59 1017.0
20260508142425 62 316 3.0 9.0 0.00 0.00 0.00 57 1017.1
20260508141925 62 344 3.0 9.0 0.00 0.00 0.00 62 1017.0
20260508141435 62 5 3.0 8.0 0.00 0.00 0.00 59 1016.9
20260508140934 62 313 3.0 9.0 0.00 0.00 0.00 61 1016.9
20260508140421 62 291 3.0 9.0 0.00 0.00 0.00 61 1016.9
20260508135921 61 342 4.0 9.0 0.00 0.00 0.00 61 1016.8
20260508135420 61 5 3.0 9.0 0.00 0.00 0.00 63 1016.7
20260508134921 61 45 3.0 8.0 0.00 0.00 0.00 67 1016.7
20260508134422 61 329 3.0 9.0 0.00 0.00 0.00 68 1016.7
20260508133921 61 330 3.0 9.0 0.00 0.00 0.00 70 1016.6
20260508133417 60 93 3.0 8.0 0.00 0.00 0.00 72 1016.6
20260508133410 60 5 3.0 10.0 0.00 0.00 0.00 73 1016.6
20260508132409 60 115 3.0 10.0 0.00 0.00 0.00 73 1016.6
20260508131907 58 19 4.0 0.0 0.00 0.00 0.00 77 1016.4
20260508130941 57 67 4.0 10.0 0.00 0.71 0.00 81 1016.4
20260508130710 57 11 3.0 8.0 0.00 0.73 0.00 84 1016.4
20260508125940 56 348 3.0 10.0 0.00 0.73 0.00 85 1016.4
20260508125440 56 18 4.0 10.0 0.00 0.73 0.00 85 1016.3
20260508124936 55 23 3.0 8.0 0.00 0.73 0.00 87 1016.4
20260508124436 55 48 3.0 7.0 0.00 0.73 0.00 88 1016.4
20260508123938 54 11 3.0 9.0 0.00 0.74 0.00 88 1016.4
20260508123436 54 350 3.0 9.0 0.00 0.74 0.00 89 1016.3
20260508122936 54 302 3.0 10.0 0.00 0.74 0.00 89 1016.2
20260508122437 54 332 3.0 10.0 0.00 0.74 0.00 89 1016.2
20260508121936 53 9 3.0 8.0 0.00 0.75 0.00 89 1016.1
20260508121707 53 342 4.0 8.0 0.00 0.75 0.00 89 1016.0
20260508121200 53 355 3.0 8.0 0.00 0.76 0.00 89 1016.0
20260508120423 53 348 2.0 5.0 0.00 0.77 0.00 90 1015.9
20260508115917 53 355 3.0 6.0 0.00 0.79 0.00 90 1015.8
20260508115410 53 319 2.0 6.0 0.00 0.83 0.00 90 1015.7
20260508114905 52 340 2.0 5.0 0.00 0.86 0.00 90 1015.7
20260508114359 52 342 2.0 5.0 0.00 0.88 0.00 90 1015.5
20260508113856 52 355 2.0 5.0 0.00 0.89 0.00 90 1015.5
20260508113850 52 341 3.0 5.0 0.00 0.90 0.00 90 1015.4
20260508112844 51 18 3.0 8.0 0.00 0.93 0.00 90 1015.3
20260508112344 51 0 2.0 8.0 0.00 0.94 0.00 90 1015.2
20260508111844 50 355 2.0 5.0 0.00 0.97 0.00 90 1015.1
20260508111616 49 340 1.0 3.0 0.00 0.99 0.00 90 1015.0
20260508110843 48 17 1.0 3.0 0.00 1.00 0.00 89 1015.0
20260508110341 47 323 0.0 3.0 0.00 1.00 0.00 89 1015.0
20260508105839 46 322 0.0 0.0 0.00 1.01 0.00 88 1014.9
20260508105339 46 322 0.0 0.0 0.00 1.01 0.00 88 1014.9
20260508104838 46 322 0.0 0.0 0.00 1.02 0.00 87 1014.8
20260508104340 46 322 0.0 0.0 0.00 1.03 0.00 87 1014.7
20260508103836 46 322 0.0 0.0 0.00 1.05 0.00 87 1014.7
20260508103608 45 322 0.0 0.0 0.00 1.06 0.00 87 1014.6
20260508102838 45 322 0.0 0.0 0.00 1.07 0.00 87 1014.6
20260508102608 45 322 0.0 0.0 0.00 1.13 0.00 87 1014.5
20260508101835 45 322 0.0 0.0 0.00 1.17 0.00 87 1014.3
20260508101335 45 322 0.0 0.0 0.00 1.18 0.00 87 1014.1
20260508100835 45 322 0.0 0.0 0.00 1.18 0.00 87 1014.2
20260508100328 46 322 0.0 0.0 0.00 1.18 0.00 87 1014.1
20260508095823 46 322 0.0 0.0 0.00 1.19 0.00 87 1014.1
20260508095548 46 322 0.0 0.0 0.00 1.19 0.00 87 1014.0
20260508094810 46 322 0.0 0.0 0.00 1.19 0.00 87 1014.0
20260508094305 46 322 0.0 0.0 0.00 1.19 0.00 87 1014.0
20260508093758 46 322 0.0 0.0 0.00 1.19 0.00 87 1014.0
20260508093253 46 322 0.0 0.0 0.00 1.19 0.00 87 1013.9
20260508092754 46 322 0.0 0.0 0.00 1.19 0.00 87 1013.8
20260508092250 46 322 0.0 0.0 0.00 1.19 0.00 87 1013.8
20260508091749 46 322 0.0 0.0 0.00 1.19 0.00 87 1013.7
20260508091247 46 322 0.0 0.0 0.00 1.19 0.00 87 1013.7
20260508090746 46 322 0.0 0.0 0.00 1.19 0.00 87 1013.6
20260508090249 46 322 0.0 0.0 0.00 1.19 0.00 87 1013.5
20260508090242 46 322 0.0 0.0 0.00 1.19 0.00 87 1013.6
20260508085239 47 322 0.0 0.0 0.00 1.19 0.00 87 1013.5
20260508085007 47 322 0.0 0.0 0.00 1.19 0.00 87 1013.4
20260508084236 47 322 0.0 0.0 0.00 1.19 0.00 87 1013.4
20260508083736 47 322 0.0 0.0 0.00 1.19 0.00 87 1013.4
20260508083234 47 322 0.0 0.0 0.00 1.19 0.00 87 1013.2
20260508082735 47 322 0.0 0.0 0.00 1.19 0.00 87 1013.2
20260508082235 47 322 0.0 0.0 0.00 1.19 0.00 87 1013.2
20260508081735 47 322 0.0 0.0 0.00 1.19 0.00 87 1013.2
20260508081233 47 322 0.0 0.0 0.00 1.19 0.00 87 1013.1
20260508080733 47 322 0.0 0.0 0.00 1.19 0.00 87 1013.1
20260508080233 47 322 0.0 0.0 0.00 1.19 0.00 87 1013.1
20260508075726 47 322 0.0 0.0 0.00 1.19 0.00 87 1013.1
20260508075218 47 322 0.0 0.0 0.00 1.19 0.00 87 1012.9
20260508074713 48 322 0.0 0.0 0.00 1.19 0.00 87 1012.9
20260508074207 48 322 0.0 0.0 0.00 1.19 0.00 87 1012.9
20260508073700 48 322 0.0 0.0 0.00 1.19 0.00 87 1012.9
20260508073155 48 322 0.0 0.0 0.00 1.19 0.00 87 1012.9
20260508072648 48 322 0.0 0.0 0.00 1.19 0.00 87 1012.9
20260508072143 48 322 0.0 0.0 0.00 1.19 0.00 87 1012.8
20260508071637 48 322 0.0 0.0 0.00 1.19 0.00 87 1012.8
20260508071130 48 322 0.0 0.0 0.00 1.19 0.00 86 1012.6
20260508070625 48 322 0.0 0.0 0.00 1.19 0.00 86 1012.6
20260508070402 48 322 0.0 0.0 0.00 1.19 0.00 86 1012.5
20260508065613 48 322 0.0 0.0 0.00 1.19 0.00 86 1012.6
20260508065107 48 322 0.0 0.0 0.00 1.19 0.00 86 1012.6
20260508064601 48 322 0.0 0.0 0.00 1.19 0.00 86 1012.5
20260508064054 48 322 0.0 0.0 0.00 1.19 0.00 86 1012.4
20260508063820 48 322 0.0 0.0 0.00 1.19 0.00 86 1012.3
20260508063043 49 322 0.0 0.0 0.00 1.19 0.00 86 1012.3
20260508062537 49 322 0.0 0.0 0.00 1.19 0.00 86 1012.3
20260508062031 49 322 0.0 0.0 0.00 1.19 0.00 86 1012.4
20260508061524 49 322 0.0 0.0 0.00 1.19 0.00 86 1012.3
20260508061019 49 322 0.0 0.0 0.00 1.19 0.00 86 1012.3
20260508060744 49 322 0.0 0.0 0.00 1.19 0.00 86 1012.3
20260508060007 49 322 0.0 0.0 0.00 1.19 0.00 86 1012.4
20260508055500 49 322 0.0 0.0 0.00 1.19 0.00 86 1012.1
20260508054955 49 322 0.0 0.0 0.00 1.19 0.00 86 1012.0
20260508054449 49 322 0.0 0.0 0.00 1.19 0.00 86 1012.1
20260508053943 50 322 0.0 0.0 0.00 1.19 0.00 87 1012.1
20260508053709 50 322 0.0 0.0 0.00 1.19 0.00 87 1012.1
20260508052931 50 322 0.0 0.0 0.00 1.19 0.00 86 1012.1
20260508052656 50 322 0.0 0.0 0.00 1.19 0.00 87 1012.1
20260508051919 50 322 0.0 0.0 0.00 1.19 0.00 87 1012.3
20260508051413 50 322 0.0 0.0 0.00 1.19 0.00 87 1012.2
20260508050906 51 322 0.0 0.0 0.00 1.19 0.00 87 1012.2
20260508050632 51 322 0.0 0.0 0.00 1.19 0.00 87 1012.1
20260508045855 51 322 0.0 0.0 0.00 1.19 0.00 87 1012.0
20260508045355 51 322 0.0 0.0 0.00 1.19 0.00 87 1012.0
20260508044856 51 322 0.0 0.0 0.00 1.19 0.00 87 1011.8
20260508044355 51 322 0.0 0.0 0.00 1.19 0.00 87 1011.7
20260508043852 51 322 0.0 0.0 0.00 1.19 0.00 87 1011.7
20260508043353 51 322 0.0 0.0 0.00 1.19 0.00 87 1011.8
20260508042853 51 322 0.0 0.0 0.00 1.19 0.00 87 1011.8
20260508042353 51 322 0.0 0.0 0.00 1.19 0.00 87 1011.9
20260508041852 51 322 0.0 0.0 0.00 1.19 0.00 87 1011.9
20260508041351 51 322 0.0 0.0 0.00 1.19 0.00 87 1012.0
20260508040848 51 322 0.0 0.0 0.00 1.19 0.00 87 1011.8
20260508040350 51 322 0.0 0.0 0.00 1.19 0.00 87 1011.6
20260508035848 51 322 0.0 0.0 0.00 1.19 1.19 87 1011.7
20260508035346 51 322 0.0 0.0 0.00 1.19 1.19 87 1011.7
20260508034847 50 322 0.0 0.0 0.00 1.19 1.19 87 1011.5
20260508034347 50 322 0.0 0.0 0.00 1.19 1.19 87 1011.4
20260508033845 50 322 0.0 0.0 0.00 1.19 1.19 86 1011.4
20260508033345 50 322 0.0 0.0 0.00 1.19 1.19 86 1011.2
20260508032838 50 322 0.0 0.0 0.00 1.19 1.19 86 1011.4
20260508032333 51 322 0.0 0.0 0.00 1.19 1.19 86 1011.5
20260508031827 51 322 0.0 0.0 0.00 1.19 1.19 86 1011.5
20260508031321 51 322 0.0 0.0 0.00 1.19 1.19 86 1011.6
20260508030827 51 322 0.0 0.0 0.00 1.19 1.19 86 1011.4
20260508030540 51 322 0.0 0.0 0.00 1.19 1.19 86 1011.4
20260508025803 51 322 0.0 0.0 0.00 1.19 1.19 87 1011.4
20260508025527 51 322 0.0 0.0 0.00 1.19 1.19 87 1011.4
20260508024751 51 322 0.0 0.0 0.01 1.19 1.19 87 1011.3
20260508024244 51 322 0.0 0.0 0.01 1.19 1.19 86 1011.3
20260508023739 51 322 0.0 0.0 0.01 1.19 1.19 86 1011.1
20260508023232 52 322 0.0 0.0 0.01 1.19 1.19 86 1011.0
20260508022727 52 322 0.0 0.0 0.01 1.19 1.19 86 1010.9
20260508022220 52 322 0.0 0.0 0.01 1.19 1.19 87 1011.0
20260508021715 52 322 0.0 0.0 0.01 1.19 1.19 87 1011.2
20260508021440 52 322 0.0 0.0 0.01 1.19 1.19 87 1011.2
20260508020934 52 322 0.0 0.0 0.01 1.19 1.19 87 1011.3
20260508020157 52 322 0.0 0.0 0.01 1.19 1.19 87 1011.2
20260508015650 52 322 0.0 0.0 0.01 1.19 1.19 87 1011.2
20260508015145 52 322 0.0 0.0 0.01 1.19 1.19 87 1011.2
20260508014639 52 322 0.0 0.0 0.00 1.18 1.18 86 1011.0
20260508014133 52 323 0.0 0.0 0.00 1.18 1.18 86 1010.8
20260508013627 52 323 0.0 0.0 0.00 1.18 1.18 86 1011.0
20260508013121 52 323 0.0 0.0 0.00 1.18 1.18 86 1011.2
20260508012614 52 323 0.0 0.0 0.00 1.18 1.18 86 1011.2
20260508012340 52 323 0.0 0.0 0.01 1.18 1.18 86 1010.9
20260508011833 52 323 0.0 0.0 0.01 1.18 1.18 86 1010.6
20260508011057 52 323 0.0 0.0 0.01 1.18 1.18 86 1010.7
20260508010559 52 323 0.0 0.0 0.01 1.18 1.18 86 1010.4
20260508010550 52 323 0.0 0.0 0.01 1.18 1.18 86 1010.6
20260508005539 52 323 0.0 0.0 0.01 1.18 1.18 86 1010.5
20260508005033 52 323 0.0 2.0 0.01 1.18 1.18 86 1010.5
20260508004527 52 321 0.0 2.0 0.01 1.18 1.18 86 1010.4
20260508004021 52 336 0.0 2.0 0.01 1.18 1.18 86 1010.3
20260508003515 52 313 0.0 2.0 0.01 1.18 1.18 86 1010.3
20260508003009 52 355 0.0 2.0 0.02 1.18 1.18 86 1010.3
20260508002503 52 201 0.0 2.0 0.02 1.18 1.18 86 1010.1
20260508002228 52 178 0.0 1.0 0.01 1.17 1.17 86 1010.1
20260508001451 52 140 0.0 2.0 0.03 1.17 1.17 86 1009.9
20260508000944 52 261 0.0 2.0 0.08 1.17 1.17 86 1009.9
20260508000438 52 51 0.0 2.0 0.09 1.17 1.17 86 1009.8
20260508000206 53 173 0.0 0.0 0.09 1.17 1.17 86 1009.8
20260507235427 53 5 0.0 2.0 0.09 1.17 1.17 86 1009.7
20260507234921 53 280 0.0 2.0 0.09 1.17 1.17 86 1009.6
20260507234415 53 24 0.0 0.0 0.09 1.17 1.17 86 1009.8
20260507233909 53 140 0.0 0.0 0.09 1.17 1.17 86 1009.7
20260507233634 53 155 0.0 0.0 0.08 1.16 1.16 86 1009.9
20260507233127 53 155 0.0 0.0 0.08 1.16 1.16 86 1010.1
20260507232351 53 155 0.0 0.0 0.08 1.16 1.16 86 1010.2
20260507231845 53 155 0.0 3.0 0.08 1.16 1.16 86 1010.1
20260507231339 53 164 0.0 3.0 0.05 1.13 1.13 86 1009.8
20260507230833 53 125 0.0 1.0 0.00 1.08 1.09 86 1010.1
20260507230327 53 344 0.0 3.0 0.00 1.08 1.08 86 1010.1
20260507230052 53 355 1.0 3.0 0.00 1.08 1.08 86 1009.4
20260507225315 53 15 0.0 3.0 0.00 1.08 1.08 85 1009.5
20260507224808 53 186 0.0 2.0 0.00 1.08 1.08 85 1009.2
20260507224303 53 45 0.0 2.0 0.01 1.08 1.08 85 1009.4
20260507223757 53 31 0.0 2.0 0.01 1.08 1.08 85 1009.6
20260507223251 53 5 0.0 2.0 0.01 1.08 1.08 85 1010.0
20260507222745 53 0 1.0 2.0 0.01 1.08 1.08 85 1010.0
20260507222239 53 347 1.0 6.0 0.01 1.08 1.08 85 1009.8
20260507221746 53 5 1.0 6.0 0.01 1.08 1.08 85 1009.7
20260507221227 53 17 1.0 4.0 0.01 1.08 1.08 85 1009.6
20260507220720 53 5 1.0 3.0 0.01 1.08 1.08 85 1009.7
20260507220215 53 11 1.0 4.0 0.02 1.08 1.08 85 1009.5
20260507215940 52 23 1.0 4.0 0.02 1.08 1.08 85 1009.4
20260507215203 52 26 0.0 3.0 0.03 1.08 1.08 85 1009.6
20260507214656 52 9 0.0 4.0 0.03 1.07 1.07 85 1009.6
20260507214151 52 315 0.0 4.0 0.03 1.07 1.07 85 1009.8
20260507213645 52 24 1.0 2.0 0.03 1.07 1.07 85 1009.7
20260507213139 52 320 1.0 4.0 0.04 1.07 1.07 84 1009.6
20260507212633 52 38 1.0 4.0 0.04 1.07 1.07 84 1009.8
20260507212127 52 244 0.0 2.0 0.04 1.07 1.07 84 1009.7
20260507211852 52 19 0.0 2.0 0.04 1.07 1.07 84 1009.9
20260507211115 52 43 1.0 4.0 0.04 1.07 1.07 84 1009.7
20260507210839 52 123 2.0 4.0 0.04 1.07 1.07 83 1009.6
20260507210103 52 117 2.0 5.0 0.03 1.06 1.06 83 1009.5
20260507205557 52 335 2.0 7.0 0.03 1.06 1.06 83 1009.6
20260507205051 52 19 1.0 7.0 0.01 1.04 1.04 83 1009.5
20260507204545 52 53 2.0 5.0 0.01 1.04 1.04 84 1009.5
20260507204038 52 44 2.0 5.0 0.01 1.04 1.04 84 1009.5
20260507203533 52 5 2.0 5.0 0.01 1.04 1.04 84 1009.3
20260507203027 52 9 1.0 3.0 0.00 1.03 1.03 84 1009.2
20260507202521 52 297 1.0 6.0 0.00 1.03 1.03 83 1009.2
20260507202015 52 52 2.0 6.0 0.00 1.03 1.03 83 1009.5
20260507201509 52 293 2.0 4.0 0.00 1.03 1.03 83 1009.5
20260507201246 52 24 2.0 9.0 0.00 1.03 1.03 83 1009.3
20260507200728 52 355 2.0 9.0 0.00 1.03 1.03 83 1009.1
20260507200221 52 24 1.0 4.0 0.00 1.03 1.03 83 1009.0
20260507195451 52 29 2.0 10.0 0.00 1.03 1.03 83 1008.9
20260507194949 52 311 3.0 10.0 0.00 1.03 1.03 84 1008.9
20260507194448 52 325 2.0 5.0 0.00 1.03 1.03 84 1008.9
20260507193949 52 0 2.0 6.0 0.00 1.03 1.03 83 1009.0
20260507193718 52 0 2.0 9.0 0.01 1.03 1.03 83 1009.1
20260507192946 52 211 3.0 9.0 0.01 1.03 1.03 84 1009.0
20260507192447 52 321 2.0 9.0 0.01 1.03 1.03 84 1009.3
20260507191945 52 11 2.0 7.0 0.01 1.03 1.03 84 1009.3
20260507191443 52 163 3.0 7.0 0.01 1.03 1.03 84 1009.4
20260507190943 52 5 2.0 8.0 0.02 1.03 1.03 85 1009.5
20260507190715 52 355 3.0 8.0 0.02 1.03 1.03 85 1009.5
20260507185948 53 279 2.0 6.0 0.02 1.03 1.03 86 1009.9
20260507185942 52 9 3.0 8.0 0.02 1.03 1.03 85 1009.9
20260507184943 52 355 2.0 8.0 0.03 1.03 1.03 86 1010.1
20260507184443 52 18 3.0 8.0 0.03 1.03 1.03 86 1010.2
20260507183942 52 58 2.0 5.0 0.04 1.03 1.03 86 1010.1
20260507183713 52 69 3.0 7.0 0.04 1.02 1.02 86 1010.0
20260507183601 52 49 3.0 7.0 0.04 1.02 1.02 86 1010.2
20260507182437 52 330 3.0 10.0 0.05 1.02 1.02 86 1010.2
20260507181931 52 5 4.0 10.0 0.06 1.02 1.02 86 1009.6
20260507181437 52 26 3.0 9.0 0.06 1.02 1.02 85 1009.4
20260507180919 52 68 3.0 10.0 0.06 1.01 1.01 86 1009.8
20260507180413 52 329 2.0 10.0 0.06 1.01 1.01 85 1009.8
20260507175907 52 182 2.0 10.0 0.07 1.01 1.01 86 1009.8
20260507175401 53 60 2.0 10.0 0.07 1.01 1.01 86 1010.3
20260507174854 53 100 1.0 6.0 0.06 1.00 1.00 86 1010.3
20260507174349 53 195 1.0 4.0 0.06 1.00 1.00 86 1010.6
20260507173843 53 38 3.0 11.0 0.05 0.99 0.99 86 1010.8
20260507173337 53 355 3.0 11.0 0.05 0.98 0.98 86 1010.8
20260507172830 53 345 3.0 9.0 0.04 0.97 0.98 86 1011.0
20260507172324 53 9 2.0 9.0 0.05 0.97 0.97 86 1011.1
20260507171819 53 315 1.0 5.0 0.05 0.96 0.96 86 1011.1
20260507171313 53 54 1.0 4.0 0.06 0.96 0.96 86 1011.2
20260507170807 53 62 1.0 5.0 0.07 0.95 0.95 86 1011.3
20260507170314 53 328 2.0 5.0 0.09 0.95 0.95 86 1011.0
20260507165755 53 31 1.0 4.0 0.10 0.94 0.94 86 1011.0
20260507165520 53 16 2.0 8.0 0.11 0.94 0.94 86 1011.0
20260507164743 53 24 2.0 8.0 0.14 0.94 0.94 86 1010.9
20260507164236 53 123 1.0 6.0 0.16 0.94 0.94 86 1011.1
20260507163731 54 319 2.0 7.0 0.18 0.94 0.94 86 1011.0
20260507163225 54 316 2.0 8.0 0.18 0.93 0.93 86 1010.9
20260507162719 54 34 2.0 8.0 0.21 0.93 0.93 86 1010.8
20260507162215 54 0 2.0 8.0 0.22 0.92 0.92 86 1010.7
20260507162209 54 56 3.0 10.0 0.23 0.91 0.91 86 1010.7
20260507161201 54 9 3.0 10.0 0.23 0.89 0.90 86 1010.9
20260507160655 54 355 3.0 11.0 0.24 0.88 0.88 86 1011.1
20260507160148 54 0 2.0 11.0 0.26 0.86 0.86 86 1011.1
20260507155643 54 317 2.0 6.0 0.28 0.84 0.84 85 1010.7
20260507155137 54 256 2.0 7.0 0.28 0.82 0.82 85 1010.7
20260507154631 55 303 2.0 8.0 0.26 0.80 0.80 86 1010.3
20260507154124 55 73 3.0 14.0 0.25 0.78 0.78 85 1010.7
20260507153619 55 344 3.0 14.0 0.23 0.76 0.76 85 1010.9
20260507153113 56 34 2.0 11.0 0.21 0.74 0.74 85 1010.8
20260507152607 56 59 2.0 9.0 0.19 0.72 0.72 86 1011.2
20260507152102 56 24 2.0 11.0 0.17 0.70 0.70 86 1011.1
20260507152056 56 16 3.0 11.0 0.16 0.68 0.68 86 1011.1